• In Uzbekistan
  • List of Countries
  • For 7 days
  • Water Temperature
  • Satellite Maps
  • Weather Map
  • Weather Widgets
  • user-avatar
    Login

    Hourly Weather Cafelandia

    Today, 23 September, Sunday

    Time Temperature Precipitation Wind Pressure Humidity
    00:00 +25°C° 0 mm 3 mps 720 mmHg 49%
    01:00 +25°C° 0 mm 3 mps 720 mmHg 50%
    02:00 +24°C° 0 mm 3 mps 720 mmHg 51%
    03:00 +24°C° 0 mm 2 mps 720 mmHg 52%
    04:00 +23°C° 0 mm 2 mps 720 mmHg 54%
    05:00 +23°C° 0 mm 2 mps 720 mmHg 56%
    06:00 +21°C° 0 mm 2 mps 720 mmHg 57%
    07:00 +25°C° 0 mm 3 mps 721 mmHg 53%
    08:00 +27°C° 0 mm 3 mps 722 mmHg 48%
    09:00 +29°C° 0 mm 3 mps 723 mmHg 44%
    10:00 +31°C° 0 mm 3 mps 723 mmHg 39%
    11:00 +34°C° 0 mm 2 mps 723 mmHg 33%
    12:00 +36°C° 0 mm 2 mps 723 mmHg 28%
    13:00 +37°C° 0 mm 2 mps 722 mmHg 26%
    14:00 +37°C° 0 mm 2 mps 722 mmHg 24%
    15:00 +37°C° 0 mm 2 mps 721 mmHg 22%
    16:00 +36°C° 0 mm 2 mps 721 mmHg 26%
    17:00 +34°C° 0 mm 2 mps 721 mmHg 30%
    18:00 +32°C° 0 mm 2 mps 720 mmHg 33%
    19:00 +31°C° 0 mm 2 mps 721 mmHg 35%
    20:00 +30°C° 0 mm 2 mps 721 mmHg 36%
    21:00 +28°C° 0 mm 2 mps 721 mmHg 37%
    22:00 +28°C° 0 mm 2 mps 721 mmHg 39%
    23:00 +27°C° 0 mm 2 mps 721 mmHg 40%

    Tomorrow, 24 September, Monday

    Time Temperature Precipitation Wind Pressure Humidity
    00:00 +27°C° 0 mm 2 mps 721 mmHg 41%
    01:00 +26°C° 0 mm 2 mps 721 mmHg 43%
    02:00 +25°C° 0 mm 2 mps 720 mmHg 45%
    03:00 +25°C° 0 mm 2 mps 720 mmHg 47%
    04:00 +24°C° 0 mm 2 mps 720 mmHg 49%
    05:00 +24°C° 0 mm 2 mps 721 mmHg 51%
    06:00 +24°C° 0 mm 2 mps 721 mmHg 53%
    07:00 +26°C° 0 mm 2 mps 721 mmHg 50%
    08:00 +28°C° 0 mm 2 mps 722 mmHg 46%
    09:00 +30°C° 0 mm 3 mps 723 mmHg 43%
    10:00 +32°C° 0 mm 2 mps 723 mmHg 38%
    11:00 +35°C° 0 mm 2 mps 723 mmHg 34%
    12:00 +37°C° 0 mm 2 mps 723 mmHg 29%
    13:00 +38°C° 0 mm 2 mps 722 mmHg 27%
    14:00 +37°C° 0 mm 1 mps 721 mmHg 24%
    15:00 +39°C° 0 mm 1 mps 721 mmHg 22%
    16:00 +36°C° 0 mm 1 mps 720 mmHg 25%
    17:00 +36°C° 0 mm 2 mps 720 mmHg 28%
    18:00 +34°C° 0 mm 2 mps 720 mmHg 32%
    19:00 +32°C° 0 mm 2 mps 720 mmHg 33%
    20:00 +31°C° 0 mm 2 mps 721 mmHg 34%
    21:00 +29°C° 0 mm 2 mps 721 mmHg 35%
    22:00 +29°C° 0 mm 2 mps 721 mmHg 36%
    23:00 +28°C° 0 mm 2 mps 721 mmHg 37%

    Day after tomorrow, 25 September, Tuesday

    Time Temperature Precipitation Wind Pressure Humidity
    00:00 +27°C° 0 mm 2 mps 721 mmHg 38%
    01:00 +27°C° 0 mm 2 mps 720 mmHg 40%
    02:00 +26°C° 0 mm 2 mps 720 mmHg 42%
    03:00 +26°C° 0 mm 3 mps 719 mmHg 43%
    04:00 +25°C° 0 mm 3 mps 719 mmHg 45%
    05:00 +25°C° 0 mm 3 mps 719 mmHg 46%
    06:00 +24°C° 0 mm 3 mps 719 mmHg 48%
    07:00 +27°C° 0 mm 3 mps 720 mmHg 45%
    08:00 +29°C° 0 mm 3 mps 721 mmHg 43%
    09:00 +33°C° 0 mm 4 mps 721 mmHg 40%
    10:00 +35°C° 0 mm 4 mps 721 mmHg 35%
    11:00 +37°C° 0 mm 3 mps 721 mmHg 30%
    12:00 +39°C° 0 mm 3 mps 721 mmHg 24%
    13:00 +39°C° 0 mm 3 mps 720 mmHg 23%
    14:00 +39°C° 0 mm 3 mps 720 mmHg 22%
    15:00 +40°C° 0 mm 3 mps 719 mmHg 20%
    16:00 +38°C° 0 mm 2 mps 719 mmHg 24%
    17:00 +37°C° 0 mm 2 mps 718 mmHg 27%
    18:00 +35°C° 0 mm 2 mps 718 mmHg 30%
    19:00 +34°C° 0 mm 2 mps 719 mmHg 31%
    20:00 +32°C° 0 mm 1 mps 719 mmHg 32%
    21:00 +32°C° 0 mm 1 mps 719 mmHg 33%
    22:00 +31°C° 0 mm 1 mps 719 mmHg 35%
    23:00 +30°C° 0 mm 2 mps 719 mmHg 36%

    26 September, Wednesday

    Time Temperature Precipitation Wind Pressure Humidity
    00:00 +30°C° 0 mm 2 mps 719 mmHg 37%
    01:00 +29°C° 0 mm 2 mps 718 mmHg 38%
    02:00 +29°C° 0 mm 2 mps 718 mmHg 39%
    03:00 +28°C° 0 mm 2 mps 717 mmHg 41%
    04:00 +28°C° 0.1 mm 2 mps 718 mmHg 43%
    05:00 +27°C° 0.1 mm 2 mps 718 mmHg 45%
    06:00 +26°C° 0.1 mm 2 mps 718 mmHg 48%
    07:00 +28°C° 0 mm 2 mps 719 mmHg 44%
    08:00 +30°C° 0 mm 3 mps 720 mmHg 40%
    09:00 +33°C° 0 mm 3 mps 721 mmHg 37%
    10:00 +34°C° 0 mm 4 mps 721 mmHg 35%
    11:00 +35°C° 0 mm 4 mps 721 mmHg 33%
    12:00 +36°C° 0 mm 5 mps 721 mmHg 32%
    13:00 +36°C° 0 mm 4 mps 720 mmHg 33%
    14:00 +35°C° 0 mm 3 mps 720 mmHg 35%
    15:00 +34°C° 0 mm 2 mps 719 mmHg 36%
    16:00 +33°C° 0.3 mm 3 mps 719 mmHg 43%
    17:00 +30°C° 0.3 mm 3 mps 718 mmHg 50%
    18:00 +29°C° 0.3 mm 4 mps 718 mmHg 57%
    19:00 +28°C° 0 mm 3 mps 718 mmHg 61%
    20:00 +27°C° 0 mm 3 mps 719 mmHg 64%
    21:00 +26°C° 0 mm 2 mps 719 mmHg 68%
    22:00 +26°C° 0.7 mm 2 mps 720 mmHg 71%
    23:00 +25°C° 0.7 mm 2 mps 720 mmHg 73%

    27 September, Thursday

    Time Temperature Precipitation Wind Pressure Humidity
    00:00 +25°C° 0.7 mm 1 mps 720 mmHg 76%
    01:00 +25°C° 0.2 mm 1 mps 720 mmHg 77%
    02:00 +24°C° 0.2 mm 2 mps 719 mmHg 78%
    03:00 +24°C° 0.2 mm 2 mps 719 mmHg 79%
    04:00 +24°C° 0 mm 2 mps 719 mmHg 79%
    05:00 +24°C° 0 mm 2 mps 719 mmHg 79%
    06:00 +24°C° 0 mm 2 mps 719 mmHg 79%
    07:00 +25°C° 0 mm 2 mps 719 mmHg 73%
    08:00 +27°C° 0 mm 2 mps 720 mmHg 66%
    09:00 +29°C° 0 mm 2 mps 721 mmHg 60%
    10:00 +31°C° 0 mm 2 mps 720 mmHg 53%
    11:00 +34°C° 0 mm 2 mps 720 mmHg 46%
    12:00 +36°C° 0 mm 2 mps 720 mmHg 39%
    13:00 +36°C° 0 mm 2 mps 719 mmHg 37%
    14:00 +37°C° 0 mm 2 mps 719 mmHg 36%
    15:00 +37°C° 0 mm 2 mps 718 mmHg 34%
    16:00 +36°C° 0 mm 2 mps 718 mmHg 37%
    17:00 +35°C° 0 mm 2 mps 718 mmHg 41%
    18:00 +33°C° 0 mm 1 mps 718 mmHg 44%
    19:00 +32°C° 0 mm 1 mps 718 mmHg 45%
    20:00 +31°C° 0 mm 1 mps 719 mmHg 46%
    21:00 +30°C° 0 mm 1 mps 719 mmHg 48%
    22:00 +30°C° 0.2 mm 1 mps 719 mmHg 50%
    23:00 +29°C° 0.2 mm 2 mps 719 mmHg 53%

    28 September, Friday

    Time Temperature Precipitation Wind Pressure Humidity
    00:00 +28°C° 0.2 mm 2 mps 719 mmHg 56%
    01:00 +27°C° 1 mm 2 mps 719 mmHg 63%
    02:00 +26°C° 1 mm 2 mps 719 mmHg 71%
    03:00 +25°C° 1 mm 2 mps 719 mmHg 79%
    04:00 +25°C° 0 mm 2 mps 720 mmHg 79%
    05:00 +25°C° 0 mm 2 mps 720 mmHg 79%
    06:00 +24°C° 0 mm 2 mps 720 mmHg 79%
    07:00 +26°C° 0 mm 2 mps 720 mmHg 74%
    08:00 +27°C° 0 mm 2 mps 721 mmHg 69%
    09:00 +28°C° 0 mm 2 mps 721 mmHg 64%
    10:00 +30°C° 0 mm 2 mps 721 mmHg 56%
    11:00 +34°C° 0 mm 3 mps 721 mmHg 48%
    12:00 +36°C° 0 mm 3 mps 720 mmHg 40%
    13:00 +36°C° 0 mm 3 mps 720 mmHg 37%
    14:00 +37°C° 0 mm 4 mps 719 mmHg 35%
    15:00 +38°C° 0 mm 4 mps 718 mmHg 32%
    16:00 +37°C° 0 mm 3 mps 718 mmHg 36%
    17:00 +35°C° 0 mm 3 mps 718 mmHg 40%
    18:00 +34°C° 0 mm 3 mps 718 mmHg 44%
    19:00 +33°C° 0.3 mm 3 mps 718 mmHg 49%
    20:00 +30°C° 0.3 mm 3 mps 719 mmHg 54%
    21:00 +29°C° 0.3 mm 2 mps 719 mmHg 59%
    22:00 +28°C° 0.8 mm 3 mps 719 mmHg 63%
    23:00 +27°C° 0.8 mm 3 mps 720 mmHg 66%
    Show more